When you browse on this site, cookies collect data to enhance your experience and personalize the content and advertising you see.
Visit our Privacy Policy to learn more. By continuing to use the site, you agree to this use of cookies and data.

Hourly Weather Santa Fe

Today, 29 September, Tuesday

Time Temperature Precipitation Wind Pressure Humidity
00:00 +13°C° 0 mm 3 mps 758 mmHg 61%
01:00 +13°C° 0 mm 3 mps 757 mmHg 63%
02:00 +13°C° 0 mm 4 mps 757 mmHg 65%
03:00 +12°C° 0 mm 4 mps 757 mmHg 66%
04:00 +12°C° 0 mm 4 mps 756 mmHg 67%
05:00 +12°C° 0 mm 4 mps 756 mmHg 68%
06:00 +13°C° 0 mm 4 mps 756 mmHg 64%
07:00 +15°C° 0 mm 5 mps 757 mmHg 61%
08:00 +16°C° 0 mm 6 mps 757 mmHg 57%
09:00 +20°C° 0 mm 6 mps 756 mmHg 52%
10:00 +22°C° 0 mm 6 mps 756 mmHg 48%
11:00 +24°C° 0 mm 6 mps 756 mmHg 43%
12:00 +26°C° 0 mm 5 mps 755 mmHg 42%
13:00 +27°C° 0 mm 5 mps 754 mmHg 41%
14:00 +28°C° 0 mm 5 mps 753 mmHg 40%
15:00 +27°C° 0 mm 4 mps 753 mmHg 43%
16:00 +26°C° 0 mm 4 mps 753 mmHg 47%
17:00 +26°C° 0 mm 3 mps 752 mmHg 50%
18:00 +24°C° 0 mm 3 mps 753 mmHg 59%
19:00 +21°C° 0 mm 3 mps 754 mmHg 67%
20:00 +19°C° 0 mm 3 mps 754 mmHg 76%
21:00 +18°C° 0 mm 3 mps 754 mmHg 80%
22:00 +18°C° 0 mm 3 mps 754 mmHg 84%
23:00 +17°C° 0 mm 3 mps 754 mmHg 88%

Tomorrow, 30 September, Wednesday

Time Temperature Precipitation Wind Pressure Humidity
00:00 +17°C° 0 mm 3 mps 754 mmHg 89%
01:00 +17°C° 0 mm 3 mps 753 mmHg 89%
02:00 +16°C° 0 mm 3 mps 753 mmHg 90%
03:00 +16°C° 0 mm 3 mps 753 mmHg 90%
04:00 +16°C° 0 mm 3 mps 753 mmHg 90%
05:00 +16°C° 0 mm 3 mps 753 mmHg 90%
06:00 +18°C° 0 mm 3 mps 753 mmHg 84%
07:00 +19°C° 0 mm 3 mps 753 mmHg 78%
08:00 +21°C° 0 mm 3 mps 753 mmHg 73%
09:00 +24°C° 0.2 mm 3 mps 753 mmHg 67%
10:00 +27°C° 0.2 mm 3 mps 753 mmHg 62%
11:00 +29°C° 0.2 mm 3 mps 752 mmHg 56%
12:00 +30°C° 0.1 mm 3 mps 751 mmHg 54%
13:00 +31°C° 0.1 mm 3 mps 750 mmHg 51%
14:00 +34°C° 0.1 mm 3 mps 750 mmHg 49%
15:00 +33°C° 0 mm 3 mps 749 mmHg 52%
16:00 +32°C° 0 mm 2 mps 749 mmHg 55%
17:00 +32°C° 0 mm 2 mps 749 mmHg 58%
18:00 +30°C° 0 mm 2 mps 749 mmHg 67%
19:00 +28°C° 0 mm 3 mps 749 mmHg 75%
20:00 +26°C° 0 mm 3 mps 749 mmHg 83%
21:00 +25°C° 0 mm 3 mps 749 mmHg 87%
22:00 +25°C° 0 mm 3 mps 750 mmHg 90%
23:00 +24°C° 0 mm 2 mps 750 mmHg 93%

Day after tomorrow, 1 October, Thursday

Time Temperature Precipitation Wind Pressure Humidity
00:00 +24°C° 0 mm 3 mps 750 mmHg 94%
01:00 +22°C° 0 mm 3 mps 750 mmHg 95%
02:00 +22°C° 0 mm 3 mps 750 mmHg 95%
03:00 +21°C° 0 mm 4 mps 751 mmHg 95%
04:00 +21°C° 0 mm 4 mps 751 mmHg 95%
05:00 +21°C° 0 mm 5 mps 752 mmHg 95%
06:00 +20°C° 0.1 mm 6 mps 752 mmHg 93%
07:00 +20°C° 0.1 mm 6 mps 753 mmHg 91%
08:00 +18°C° 0.1 mm 7 mps 754 mmHg 88%
09:00 +18°C° 0 mm 7 mps 755 mmHg 80%
10:00 +18°C° 0 mm 7 mps 755 mmHg 72%
11:00 +18°C° 0 mm 7 mps 755 mmHg 64%
12:00 +20°C° 0 mm 7 mps 755 mmHg 55%
13:00 +20°C° 0 mm 7 mps 755 mmHg 47%
14:00 +21°C° 0 mm 7 mps 755 mmHg 39%
15:00 +20°C° 0 mm 6 mps 756 mmHg 38%
16:00 +19°C° 0 mm 6 mps 756 mmHg 38%
17:00 +19°C° 0 mm 6 mps 756 mmHg 38%
18:00 +17°C° 0 mm 6 mps 756 mmHg 37%
19:00 +17°C° 0 mm 6 mps 757 mmHg 36%
20:00 +17°C° 0 mm 6 mps 757 mmHg 36%
21:00 +17°C° 0 mm 6 mps 758 mmHg 39%
22:00 +17°C° 0 mm 5 mps 758 mmHg 43%
23:00 +17°C° 0 mm 5 mps 759 mmHg 46%

2 October, Friday

Time Temperature Precipitation Wind Pressure Humidity
00:00 +16°C° 0 mm 5 mps 759 mmHg 48%
01:00 +17°C° 0 mm 4 mps 759 mmHg 51%
02:00 +15°C° 0 mm 4 mps 759 mmHg 53%
03:00 +15°C° 0 mm 5 mps 760 mmHg 55%
04:00 +14°C° 0 mm 6 mps 761 mmHg 57%
05:00 +14°C° 0 mm 7 mps 762 mmHg 59%
06:00 +12°C° 0 mm 7 mps 763 mmHg 61%
07:00 +12°C° 0 mm 7 mps 763 mmHg 63%
08:00 +11°C° 0 mm 7 mps 764 mmHg 66%
09:00 +12°C° 0 mm 7 mps 765 mmHg 62%
10:00 +12°C° 0 mm 7 mps 765 mmHg 58%
11:00 +14°C° 0 mm 7 mps 765 mmHg 54%
12:00 +15°C° 0 mm 7 mps 765 mmHg 51%
13:00 +16°C° 0 mm 7 mps 765 mmHg 48%
14:00 +17°C° 0 mm 7 mps 765 mmHg 45%
15:00 +16°C° 0 mm 7 mps 765 mmHg 47%
16:00 +16°C° 0 mm 7 mps 765 mmHg 49%
17:00 +15°C° 0 mm 7 mps 766 mmHg 51%
18:00 +14°C° 0 mm 7 mps 767 mmHg 54%
19:00 +12°C° 0 mm 7 mps 767 mmHg 57%
20:00 +10°C° 0 mm 7 mps 768 mmHg 61%
21:00 +10°C° 0 mm 6 mps 769 mmHg 61%
22:00 +9°C° 0 mm 6 mps 770 mmHg 62%
23:00 +8°C° 0 mm 6 mps 771 mmHg 63%

3 October, Saturday

Time Temperature Precipitation Wind Pressure Humidity
00:00 +7°C° 0 mm 5 mps 771 mmHg 64%
01:00 +6°C° 0 mm 5 mps 771 mmHg 65%
02:00 +6°C° 0 mm 5 mps 771 mmHg 65%
03:00 +5°C° 0 mm 5 mps 771 mmHg 64%
04:00 +5°C° 0 mm 5 mps 771 mmHg 63%
05:00 +3°C° 0 mm 5 mps 771 mmHg 62%
06:00 +5°C° 0 mm 5 mps 771 mmHg 59%
07:00 +5°C° 0 mm 6 mps 771 mmHg 56%
08:00 +7°C° 0 mm 6 mps 771 mmHg 54%
09:00 +8°C° 0 mm 6 mps 771 mmHg 51%
10:00 +9°C° 0 mm 6 mps 771 mmHg 48%
11:00 +12°C° 0 mm 5 mps 771 mmHg 45%
12:00 +13°C° 0 mm 5 mps 770 mmHg 44%
13:00 +14°C° 0 mm 5 mps 770 mmHg 43%
14:00 +15°C° 0 mm 5 mps 769 mmHg 41%
15:00 +15°C° 0 mm 5 mps 769 mmHg 44%
16:00 +14°C° 0 mm 4 mps 769 mmHg 47%
17:00 +13°C° 0 mm 4 mps 769 mmHg 50%
18:00 +13°C° 0 mm 4 mps 769 mmHg 52%
19:00 +12°C° 0 mm 4 mps 769 mmHg 53%
20:00 +12°C° 0 mm 4 mps 770 mmHg 54%
21:00 +12°C° 0 mm 4 mps 770 mmHg 56%
22:00 +11°C° 0 mm 4 mps 771 mmHg 58%
23:00 +11°C° 0 mm 4 mps 771 mmHg 60%

4 October, Sunday

Time Temperature Precipitation Wind Pressure Humidity
00:00 +10°C° 0 mm 4 mps 771 mmHg 64%
01:00 +8°C° 0 mm 4 mps 771 mmHg 69%
02:00 +7°C° 0 mm 4 mps 771 mmHg 74%
03:00 +7°C° 0 mm 4 mps 771 mmHg 74%
04:00 +7°C° 0 mm 4 mps 771 mmHg 74%
05:00 +7°C° 0 mm 4 mps 770 mmHg 75%
06:00 +8°C° 0 mm 4 mps 771 mmHg 71%
07:00 +10°C° 0 mm 4 mps 771 mmHg 68%
08:00 +11°C° 0 mm 4 mps 771 mmHg 65%
09:00 +13°C° 0 mm 4 mps 771 mmHg 58%
10:00 +15°C° 0 mm 4 mps 770 mmHg 51%
11:00 +18°C° 0 mm 4 mps 770 mmHg 44%
12:00 +19°C° 0 mm 4 mps 769 mmHg 42%
13:00 +19°C° 0 mm 4 mps 768 mmHg 41%
14:00 +20°C° 0 mm 4 mps 767 mmHg 40%
15:00 +20°C° 0 mm 4 mps 767 mmHg 43%
16:00 +19°C° 0 mm 4 mps 766 mmHg 47%
17:00 +19°C° 0 mm 4 mps 766 mmHg 50%
18:00 +17°C° 0 mm 4 mps 766 mmHg 57%
19:00 +14°C° 0 mm 3 mps 766 mmHg 64%
20:00 +12°C° 0 mm 3 mps 766 mmHg 71%
21:00 +12°C° 0 mm 3 mps 766 mmHg 75%
22:00 +11°C° 0 mm 3 mps 766 mmHg 78%
23:00 +11°C° 0 mm 3 mps 766 mmHg 82%
Show more